| time (UTC) | temp C | wind direction | speed KPH | gust KPH | rain 1hr cm | rain 24hr cm | rain mn cm | humidity % | barometer mb |
| 20260906211516 | 24 | 21 | 3.2 | 4.8 | 0.00 | 0.00 | 0.00 | 77 | 1021.2 |
| 20260906210016 | 24 | 38 | 3.2 | 8.0 | 0.00 | 0.00 | 0.00 | 77 | 1021.1 |
| 20260906204514 | 24 | 31 | 4.8 | 8.0 | 0.00 | 0.00 | 0.00 | 77 | 1021.0 |
| 20260906203015 | 24 | 44 | 4.8 | 6.4 | 0.00 | 0.00 | 0.00 | 77 | 1020.9 |
| 20260906201514 | 24 | 344 | 1.6 | 4.8 | 0.00 | 0.00 | 0.00 | 77 | 1020.8 |
| 20260906200013 | 25 | 43 | 3.2 | 8.0 | 0.00 | 0.00 | 0.00 | 76 | 1020.7 |
| 20260906194517 | 25 | 42 | 4.8 | 8.0 | 0.00 | 0.00 | 0.00 | 75 | 1020.7 |
| 20260906193012 | 25 | 40 | 3.2 | 8.0 | 0.00 | 0.00 | 0.00 | 75 | 1020.6 |
| 20260906191510 | 25 | 34 | 4.8 | 8.0 | 0.00 | 0.00 | 0.00 | 74 | 1020.6 |
| 20260906190011 | 26 | 34 | 3.2 | 6.4 | 0.00 | 0.00 | 0.00 | 72 | 1020.4 |
| 20260906184508 | 27 | 34 | 1.6 | 3.2 | 0.00 | 0.00 | 0.00 | 70 | 1020.2 |
| 20260906183008 | 27 | 34 | 1.6 | 6.4 | 0.00 | 0.00 | 0.00 | 68 | 1020.0 |
| 20260906181514 | 27 | 38 | 3.2 | 6.4 | 0.00 | 0.00 | 0.00 | 66 | 1019.9 |
| 20260906180004 | 28 | 33 | 1.6 | 4.8 | 0.00 | 0.00 | 0.00 | 62 | 1019.8 |
| 20260906174503 | 30 | 33 | 0.0 | 1.6 | 0.00 | 0.00 | 0.00 | 58 | 1019.8 |
| 20260906173003 | 30 | 33 | 0.0 | 4.8 | 0.00 | 0.00 | 0.00 | 57 | 1019.7 |
| 20260906171502 | 30 | 34 | 3.2 | 8.0 | 0.00 | 0.00 | 0.00 | 54 | 1019.6 |
| 20260906170004 | 30 | 40 | 3.2 | 8.0 | 0.00 | 0.00 | 0.00 | 54 | 1019.5 |
| 20260906164501 | 30 | 24 | 3.2 | 6.4 | 0.00 | 0.00 | 0.00 | 53 | 1019.4 |
| 20260906163001 | 31 | 29 | 4.8 | 9.7 | 0.00 | 0.00 | 0.00 | 52 | 1019.3 |
| 20260906161609 | 31 | 31 | 1.6 | 8.0 | 0.00 | 0.00 | 0.00 | 52 | 1019.3 |
| 20260906160100 | 31 | 105 | 3.2 | 6.4 | 0.00 | 0.00 | 0.00 | 52 | 1019.3 |
| 20260906154559 | 31 | 180 | 1.6 | 9.7 | 0.00 | 0.00 | 0.00 | 53 | 1019.3 |
| 20260906153058 | 31 | 250 | 3.2 | 14.5 | 0.00 | 0.00 | 0.00 | 52 | 1019.3 |
| 20260906151557 | 31 | 85 | 1.6 | 11.3 | 0.00 | 0.00 | 0.00 | 52 | 1019.3 |
| 20260906150057 | 31 | 137 | 4.8 | 12.9 | 0.00 | 0.00 | 0.00 | 52 | 1019.4 |
| 20260906144558 | 31 | 176 | 6.4 | 12.9 | 0.00 | 0.00 | 0.00 | 52 | 1019.4 |
| 20260906143057 | 31 | 111 | 8.0 | 14.5 | 0.00 | 0.00 | 0.00 | 52 | 1019.5 |
| 20260906141559 | 31 | 155 | 4.8 | 9.7 | 0.00 | 0.00 | 0.00 | 53 | 1019.6 |
| 20260906140104 | 31 | 9 | 1.6 | 8.0 | 0.00 | 0.00 | 0.00 | 53 | 1019.7 |
| 20260906134604 | 30 | 106 | 6.4 | 12.9 | 0.00 | 0.00 | 0.00 | 53 | 1019.9 |
| 20260906133054 | 30 | 137 | 4.8 | 12.9 | 0.00 | 0.00 | 0.00 | 53 | 1019.9 |
| 20260906131551 | 30 | 34 | 1.6 | 11.3 | 0.00 | 0.00 | 0.00 | 53 | 1020.1 |
| 20260906130104 | 30 | 106 | 6.4 | 12.9 | 0.00 | 0.00 | 0.00 | 53 | 1020.2 |
| 20260906124547 | 30 | 173 | 6.4 | 12.9 | 0.00 | 0.00 | 0.00 | 53 | 1020.3 |
| 20260906123046 | 30 | 164 | 3.2 | 9.7 | 0.00 | 0.00 | 0.00 | 54 | 1020.4 |
| 20260906121550 | 30 | 148 | 1.6 | 11.3 | 0.00 | 0.00 | 0.00 | 54 | 1020.4 |
| 20260906120041 | 30 | 43 | 4.8 | 9.7 | 0.00 | 0.00 | 0.00 | 55 | 1020.5 |
| 20260906114548 | 29 | 144 | 8.0 | 12.9 | 0.00 | 0.00 | 0.00 | 55 | 1020.7 |
| 20260906113046 | 30 | 145 | 4.8 | 12.9 | 0.00 | 0.00 | 0.00 | 54 | 1020.7 |
| 20260906111540 | 30 | 117 | 4.8 | 11.3 | 0.00 | 0.00 | 0.00 | 54 | 1020.8 |
| 20260906110039 | 29 | 107 | 4.8 | 14.5 | 0.00 | 0.00 | 0.00 | 54 | 1020.8 |
| 20260906104540 | 29 | 209 | 6.4 | 14.5 | 0.00 | 0.00 | 0.00 | 53 | 1020.8 |
| 20260906103037 | 28 | 200 | 4.8 | 11.3 | 0.00 | 0.00 | 0.00 | 55 | 1020.9 |
| 20260906101536 | 28 | 217 | 1.6 | 11.3 | 0.00 | 0.00 | 0.00 | 55 | 1021.1 |
| 20260906100035 | 28 | 196 | 4.8 | 11.3 | 0.00 | 0.00 | 0.00 | 55 | 1021.2 |
| 20260906094541 | 29 | 211 | 3.2 | 6.4 | 0.00 | 0.00 | 0.00 | 56 | 1021.3 |
| 20260906093033 | 28 | 140 | 4.8 | 11.3 | 0.00 | 0.00 | 0.00 | 55 | 1021.4 |
| 20260906091535 | 28 | 158 | 4.8 | 14.5 | 0.00 | 0.00 | 0.00 | 55 | 1021.4 |
| 20260906090028 | 28 | 140 | 4.8 | 9.7 | 0.00 | 0.00 | 0.00 | 55 | 1021.4 |
| 20260906084531 | 28 | 50 | 3.2 | 9.7 | 0.00 | 0.00 | 0.00 | 54 | 1021.4 |
| 20260906083021 | 27 | 360 | 4.8 | 9.7 | 0.00 | 0.00 | 0.00 | 54 | 1021.4 |
| 20260906081517 | 27 | 41 | 6.4 | 11.3 | 0.00 | 0.00 | 0.00 | 54 | 1021.3 |
| 20260906080014 | 26 | 22 | 4.8 | 9.7 | 0.00 | 0.00 | 0.00 | 55 | 1021.2 |
| 20260906074511 | 26 | 27 | 4.8 | 9.7 | 0.00 | 0.00 | 0.00 | 56 | 1021.1 |
| 20260906073006 | 25 | 43 | 6.4 | 11.3 | 0.00 | 0.00 | 0.00 | 56 | 1021.0 |
| 20260906071504 | 25 | 355 | 4.8 | 12.9 | 0.00 | 0.00 | 0.00 | 58 | 1021.0 |
| 20260906070004 | 24 | 351 | 4.8 | 9.7 | 0.00 | 0.00 | 0.00 | 60 | 1020.9 |
| 20260906064507 | 23 | 360 | 4.8 | 9.7 | 0.00 | 0.00 | 0.00 | 60 | 1020.7 |
| 20260906063100 | 23 | 5 | 3.2 | 8.0 | 0.00 | 0.00 | 0.00 | 63 | 1020.7 |
| 20260906061556 | 22 | 41 | 4.8 | 9.7 | 0.00 | 0.00 | 0.00 | 63 | 1020.6 |
| 20260906060138 | 22 | 34 | 4.8 | 8.0 | 0.00 | 0.00 | 0.00 | 63 | 1020.4 |
| 20260906054553 | 22 | 35 | 3.2 | 9.7 | 0.00 | 0.00 | 0.00 | 64 | 1020.1 |
| 20260906053050 | 21 | 41 | 4.8 | 9.7 | 0.00 | 0.00 | 0.00 | 64 | 1020.0 |
| 20260906051546 | 21 | 355 | 4.8 | 6.4 | 0.00 | 0.00 | 0.00 | 64 | 1019.7 |
| 20260906050046 | 21 | 355 | 4.8 | 6.4 | 0.00 | 0.00 | 0.00 | 64 | 1019.5 |
| 20260906044544 | 22 | 5 | 3.2 | 8.0 | 0.00 | 0.00 | 0.00 | 62 | 1019.3 |
| 20260906043041 | 21 | 22 | 8.0 | 12.9 | 0.00 | 0.00 | 0.00 | 64 | 1019.1 |
| 20260906041539 | 21 | 347 | 4.8 | 8.0 | 0.00 | 0.00 | 0.00 | 64 | 1019.1 |
| 20260906040041 | 21 | 355 | 4.8 | 9.7 | 0.00 | 0.00 | 0.00 | 63 | 1019.0 |
| 20260906034541 | 21 | 345 | 4.8 | 9.7 | 0.00 | 0.00 | 0.00 | 63 | 1019.0 |
| 20260906033036 | 21 | 36 | 4.8 | 9.7 | 0.00 | 0.00 | 0.00 | 62 | 1018.9 |
| 20260906031603 | 21 | 360 | 4.8 | 11.3 | 0.00 | 0.00 | 0.00 | 63 | 1018.8 |
| 20260906030034 | 21 | 5 | 6.4 | 9.7 | 0.00 | 0.00 | 0.00 | 64 | 1018.8 |
| 20260906024538 | 21 | 37 | 4.8 | 8.0 | 0.00 | 0.00 | 0.00 | 65 | 1018.6 |
| 20260906023036 | 21 | 355 | 3.2 | 8.0 | 0.00 | 0.00 | 0.00 | 65 | 1018.6 |
| 20260906021529 | 21 | 44 | 4.8 | 9.7 | 0.00 | 0.00 | 0.00 | 65 | 1018.5 |
| 20260906020027 | 21 | 10 | 4.8 | 8.0 | 0.00 | 0.00 | 0.00 | 64 | 1018.4 |
| 20260906014526 | 21 | 20 | 3.2 | 8.0 | 0.00 | 0.00 | 0.00 | 62 | 1018.2 |
| 20260906013023 | 22 | 355 | 4.8 | 6.4 | 0.00 | 0.00 | 0.00 | 61 | 1018.2 |
| 20260906011521 | 22 | 42 | 4.8 | 8.0 | 0.00 | 0.00 | 0.00 | 59 | 1018.1 |
| 20260906010017 | 23 | 34 | 3.2 | 8.0 | 0.00 | 0.00 | 0.00 | 56 | 1018.1 |
| 20260906004514 | 23 | 31 | 6.4 | 9.7 | 0.00 | 0.00 | 0.00 | 57 | 1017.9 |
| 20260906003015 | 25 | 36 | 1.6 | 8.0 | 0.00 | 0.00 | 0.00 | 51 | 1018.0 |
| 20260906001514 | 25 | 94 | 9.7 | 16.1 | 0.00 | 0.00 | 0.00 | 51 | 1018.1 |
| 20260906000012 | 23 | 126 | 1.6 | 6.4 | 0.00 | 0.00 | 0.00 | 56 | 1017.9 |
| 20260905234509 | 23 | 19 | 1.6 | 4.8 | 0.00 | 0.00 | 0.00 | 55 | 1017.7 |
| 20260905233007 | 24 | 37 | 1.6 | 4.8 | 0.00 | 0.00 | 0.00 | 53 | 1017.7 |
| 20260905231505 | 24 | 355 | 3.2 | 6.4 | 0.00 | 0.00 | 0.00 | 53 | 1017.6 |
| 20260905230004 | 24 | 17 | 3.2 | 6.4 | 0.00 | 0.00 | 0.00 | 54 | 1017.6 |
| 20260905224503 | 24 | 12 | 4.8 | 12.9 | 0.00 | 0.00 | 0.00 | 54 | 1017.4 |
| 20260905223001 | 24 | 34 | 4.8 | 9.7 | 0.00 | 0.00 | 0.00 | 54 | 1017.3 |
| 20260905221612 | 25 | 350 | 6.4 | 12.9 | 0.00 | 0.00 | 0.00 | 54 | 1017.1 |
| 20260905220052 | 27 | 360 | 4.8 | 20.9 | 0.00 | 0.00 | 0.00 | 46 | 1017.2 |
| 20260905214558 | 26 | 46 | 4.8 | 8.0 | 0.00 | 0.00 | 0.00 | 50 | 1017.1 |
| 20260905213048 | 26 | 33 | 6.4 | 16.1 | 0.00 | 0.00 | 0.00 | 48 | 1017.0 |